Weather History for KGSB - August, 2013

Change the Weather History Date:

Friday, August 23, 2013

  Actual Average Record
Temperature  
Mean Temperature 78 °F -  
Max Temperature 88 °F 86 °F 100 °F (2002)
Min Temperature 69 °F 68 °F 64 °F (1997)
Cooling Degree Days 14    
Growing Degree Days 28 (Base 50)    
Moisture  
Dew Point 71 °F    
Average Humidity 82    
Maximum Humidity 100    
Minimum Humidity 55    
Precipitation  
Precipitation 0.00 in - - ()
Sea Level Pressure  
Sea Level Pressure 29.98 in    
Wind  
Wind Speed 5 mph (WSW)    
Max Wind Speed 10 mph    
Max Gust Speed -    
Visibility 10 miles    
Events      
Averages and records for this station are not official NWS values.
T = Trace of Precipitation, MM = Missing Value Source: NWS Daily Summary

Daily Weather History Graph

Daily Weather History Graph

Search for Another Location

Airport or City:

Trip Planner

Search our weather history database for the weather conditions in past years. The results will help you decide how hot, cold, wet, or windy it might be!

Date:

Astronomy

Aug. 23, 2013 Rise Set
Actual Time 6:37 AM EDT 7:50 PM EDT
Civil Twilight 6:11 AM EDT 8:16 PM EDT
Nautical Twilight 5:39 AM EDT 8:48 PM EDT
Astronomical Twilight 5:06 AM EDT 9:20 PM EDT
Moon 9:17 PM EDT (8/23) 9:22 AM EDT (8/23)
Length of Visible Light 14h 05m
Length of Day
13h 12m
Waning Gibbous, 91% of the Moon is Illuminated
Aug 23
Waning Gibbous
Aug 28
Last Quarter
Sep 5
New
Sep 12
First Quarter
Sep 19
Full

Hourly Weather History & Observations

Time (EDT) Temp. Heat Index Dew Point Humidity Pressure Visibility Wind Dir Wind Speed Gust Speed Precip Events Conditions
12:58 AM 70.5 °F - 70.0 °F 98% 30.01 in 10.0 mi South 4.6 mph - N/A   Clear
1:58 AM 70.3 °F - 69.8 °F 98% 30.00 in 10.0 mi South 6.9 mph - N/A   Clear
2:58 AM 69.8 °F - 69.3 °F 98% 29.99 in 10.0 mi SSW 4.6 mph - N/A   Clear
3:58 AM 70.0 °F - 69.4 °F 98% 29.98 in 10.0 mi SSW 3.5 mph - N/A   Clear
4:58 AM 69.8 °F - 69.3 °F 98% 29.97 in 10.0 mi Calm Calm - N/A   Clear
5:58 AM 70.7 °F - 70.0 °F 98% 29.98 in 10.0 mi WSW 4.6 mph - N/A   Clear
6:58 AM 70.3 °F - 69.8 °F 98% 29.99 in 10.0 mi SW 2.3 mph - N/A   Partly Cloudy
7:58 AM 71.6 °F - 71.1 °F 98% 30.01 in 10.0 mi WSW 6.9 mph - N/A   Partly Cloudy
8:19 AM 71.6 °F - 71.6 °F 100% 30.00 in 10.0 mi West 5.8 mph - N/A   Scattered Clouds
8:58 AM 73.4 °F - 72.9 °F 98% 30.01 in 10.0 mi West 5.8 mph - N/A   Partly Cloudy
9:58 AM 76.1 °F - 74.1 °F 94% 30.01 in 10.0 mi West 8.1 mph - N/A   Partly Cloudy
10:58 AM 79.2 °F - 73.8 °F 83% 30.02 in 10.0 mi West 4.6 mph - N/A   Clear
11:58 AM 82.4 °F 87.7 °F 72.5 °F 72% 30.00 in 10.0 mi WSW 3.5 mph - N/A   Partly Cloudy
12:58 PM 85.6 °F 92.6 °F 73.2 °F 66% 29.98 in 10.0 mi SW 4.6 mph - N/A   Partly Cloudy
1:58 PM 86.0 °F 92.2 °F 72.0 °F 63% 29.97 in 10.0 mi West 5.8 mph - N/A   Mostly Cloudy
2:58 PM 88.0 °F 93.8 °F 71.1 °F 57% 29.94 in 10.0 mi West 10.4 mph - N/A   Partly Cloudy
3:58 PM 88.0 °F 93.4 °F 70.3 °F 56% 29.92 in 10.0 mi West 8.1 mph - N/A   Mostly Cloudy
4:58 PM 88.3 °F 93.6 °F 70.5 °F 55% 29.91 in 10.0 mi West 8.1 mph - N/A   Mostly Cloudy
5:58 PM 87.6 °F 93.1 °F 70.5 °F 57% 29.92 in 10.0 mi WNW 8.1 mph - N/A   Mostly Cloudy
6:58 PM 86.2 °F 91.4 °F 70.7 °F 60% 29.94 in 10.0 mi West 4.6 mph - N/A   Mostly Cloudy
7:58 PM 83.7 °F 89.4 °F 72.3 °F 69% 29.94 in 10.0 mi West 4.6 mph - N/A   Mostly Cloudy
8:58 PM 77.4 °F - 69.4 °F 76% 29.97 in 10.0 mi ENE 8.1 mph - N/A   Mostly Cloudy
9:58 PM 74.5 °F - 68.5 °F 82% 30.01 in 10.0 mi North 8.1 mph - N/A   Partly Cloudy
10:58 PM 72.9 °F - 69.1 °F 88% 30.01 in 10.0 mi North 8.1 mph - N/A   Partly Cloudy
11:58 PM 72.0 °F - 70.5 °F 95% 30.03 in 10.0 mi North 4.6 mph - N/A   Scattered Clouds